Location: Lecco
(45.8566°N, 9.3977°E)
Time: 08:42:28
(UTC+02:00)

Altair - Pass Details

Date: 16 August 2020
Orbit: 1501 x 1682 km, 47.2° (Epoch: 25 September)

Event Time Altitude Azimuth Distance (km) Brightness Sun altitude
Rises 00:27:53 0° 190° (S) 4,869 - -29.0°
Reaches altitude 10° 00:31:54 10° 177° (S) 3,859 - -29.2°
Maximum altitude 00:39:02 23° 130° (SE) 2,899 - -29.5°
Exits shadow 00:42:24 19° 103° (ESE) 3,114 8.8 -29.6°
Drops below altitude 10° 00:45:59 10° 83° (E) 3,765 9.5 -29.8°
Sets 00:49:48 0° 70° (ENE) 4,724 10.2 -29.9°
